Charlevoix, MI

3:59 PM EST on January 24, 2017 (GMT -0500)
Charlevoix Municipal

Weather History for KCVX - October, 2013

Change the Weather History Date:

Sunday, October 13, 2013

  Actual Average Record
Temperature  
Mean Temperature 54 °F -  
Max Temperature 59 °F 72 °F 77 °F (2008)
Min Temperature 50 °F 50 °F 33 °F (2006)
Degree Days  
Heating Degree Days 10    
Growing Degree Days 4 (Base 50)    
Moisture  
Dew Point 45 °F    
Average Humidity 70    
Maximum Humidity 78    
Minimum Humidity 61    
Precipitation  
Precipitation 0.00 in - - ()
Sea Level Pressure  
Sea Level Pressure 30.27 in    
Wind  
Wind Speed 11 mph (WNW)    
Max Wind Speed 15 mph    
Max Gust Speed 20 mph    
Visibility 10 miles    
Events      
Averages and records for this station are not official NWS values.
T = Trace of Precipitation, MM = Missing Value Source: NWS Daily Summary

Daily Weather History Graph

Daily Weather History Graph

Search for Another Location

Airport or City:

Trip Planner

Search our weather history database for the weather conditions in past years. The results will help you decide how hot, cold, wet, or windy it might be!

Date:

Astronomy

Oct. 13, 2013 Rise Set
Actual Time 7:54 AM EDT 6:58 PM EDT
Civil Twilight 7:25 AM EDT 7:28 PM EDT
Nautical Twilight 6:50 AM EDT 8:02 PM EDT
Astronomical Twilight 6:16 AM EDT 8:36 PM EDT
Moon 4:03 PM EDT (10/13) 1:48 AM EDT (10/13)
Length of Visible Light 12h 03m
Length of Day
11h 04m
Waxing Gibbous, 69% of the Moon is Illuminated
Oct 13
Waxing Gibbous
Oct 18
Full
Oct 26
Last Quarter
Nov 3
New
Nov 10
First Quarter

Hourly Weather History & Observations

Time (EDT) Temp. Dew Point Humidity Pressure Visibility Wind Dir Wind Speed Gust Speed Precip Events Conditions
12:15 AM 59.9 °F 53.1 °F 78% 30.07 in 10.0 mi West 15.0 mph - N/A   Overcast
12:35 AM 59.4 °F 50.4 °F 72% 30.07 in 10.0 mi West 15.0 mph - N/A   Scattered Clouds
12:54 AM 58.3 °F 48.4 °F 70% 30.08 in 10.0 mi West 15.0 mph - N/A   Clear
1:15 AM 57.9 °F 47.5 °F 68% 30.08 in 10.0 mi West 12.7 mph - N/A   Clear
1:34 AM 57.2 °F 46.6 °F 68% 30.09 in 10.0 mi West 12.7 mph - N/A   Clear
1:54 AM 56.7 °F 45.5 °F 66% 30.10 in 10.0 mi West 11.5 mph 16.1 mph N/A   Clear
2:15 AM 56.7 °F 43.7 °F 62% 30.11 in 10.0 mi West 9.2 mph - N/A   Clear
2:34 AM 57.0 °F 43.9 °F 61% 30.12 in 10.0 mi West 10.4 mph 17.3 mph N/A   Clear
2:54 AM 56.1 °F 44.6 °F 65% 30.12 in 10.0 mi WSW 6.9 mph - N/A   Clear
3:15 AM 55.4 °F 44.2 °F 66% 30.13 in 10.0 mi WSW 6.9 mph - N/A   Clear
3:34 AM 54.5 °F 44.6 °F 69% 30.12 in 10.0 mi SSW 4.6 mph - N/A   Scattered Clouds
3:55 AM 53.6 °F 45.5 °F 74% 30.13 in 10.0 mi SSW 5.8 mph - N/A   Mostly Cloudy
4:15 AM 55.4 °F 46.0 °F 71% 30.13 in 10.0 mi WSW 13.8 mph 19.6 mph N/A   Mostly Cloudy
4:34 AM 54.5 °F 44.6 °F 69% 30.14 in 10.0 mi WSW 12.7 mph - N/A   Scattered Clouds
4:55 AM 54.0 °F 44.8 °F 71% 30.15 in 10.0 mi WSW 12.7 mph - N/A   Scattered Clouds
5:15 AM 54.1 °F 45.7 °F 73% 30.16 in 10.0 mi WSW 9.2 mph 19.6 mph N/A   Mostly Cloudy
5:34 AM 54.0 °F 46.2 °F 75% 30.16 in 10.0 mi West 15.0 mph - N/A   Mostly Cloudy
5:55 AM 54.5 °F 46.6 °F 75% 30.17 in 10.0 mi West 11.5 mph - N/A   Mostly Cloudy
6:14 AM 54.5 °F 46.4 °F 74% 30.18 in 10.0 mi West 12.7 mph - N/A   Mostly Cloudy
6:35 AM 54.5 °F 46.4 °F 74% 30.19 in 10.0 mi West 13.8 mph - N/A   Overcast
6:55 AM 54.0 °F 45.5 °F 73% 30.20 in 10.0 mi WNW 11.5 mph - N/A   Overcast
7:14 AM 53.1 °F 45.7 °F 76% 30.21 in 10.0 mi West 12.7 mph 18.4 mph N/A   Scattered Clouds
7:35 AM 52.7 °F 46.0 °F 78% 30.22 in 10.0 mi West 10.4 mph - N/A   Scattered Clouds
7:54 AM 53.2 °F 45.7 °F 76% 30.22 in 10.0 mi WNW 10.4 mph - N/A   Mostly Cloudy
8:14 AM 53.4 °F 45.5 °F 75% 30.23 in 10.0 mi WNW 9.2 mph - N/A   Overcast
8:35 AM 53.6 °F 46.4 °F 77% 30.24 in 10.0 mi West 9.2 mph - N/A   Overcast
8:54 AM 53.8 °F 45.5 °F 74% 30.25 in 10.0 mi WNW 9.2 mph - N/A   Overcast
9:14 AM 54.1 °F 45.9 °F 74% 30.26 in 10.0 mi West 9.2 mph - N/A   Overcast
9:35 AM 54.5 °F 45.9 °F 73% 30.27 in 10.0 mi WNW 11.5 mph - N/A   Overcast
9:54 AM 55.4 °F 46.6 °F 72% 30.27 in 10.0 mi WNW 11.5 mph - N/A   Overcast
10:14 AM 55.0 °F 45.3 °F 70% 30.27 in 10.0 mi WNW 13.8 mph - N/A   Overcast
10:35 AM 55.4 °F 46.6 °F 72% 30.28 in 10.0 mi West 12.7 mph - N/A   Overcast
10:54 AM 55.4 °F 46.0 °F 71% 30.29 in 10.0 mi WNW 11.5 mph - N/A   Overcast
11:15 AM 55.9 °F 46.6 °F 71% 30.30 in 10.0 mi WNW 11.5 mph - N/A   Overcast
11:35 AM 56.7 °F 46.9 °F 70% 30.30 in 10.0 mi WNW 15.0 mph - N/A   Overcast
11:54 AM 56.3 °F 46.8 °F 70% 30.30 in 10.0 mi WNW 11.5 mph 16.1 mph N/A   Overcast
12:15 PM 55.8 °F 47.1 °F 73% 30.31 in 10.0 mi NW 11.5 mph 17.3 mph N/A   Overcast
12:35 PM 55.4 °F 47.1 °F 74% 30.32 in 10.0 mi NW 11.5 mph - N/A   Overcast
12:54 PM 54.9 °F 46.9 °F 75% 30.32 in 10.0 mi NW 11.5 mph 18.4 mph N/A   Overcast
1:15 PM 55.0 °F 46.4 °F 73% 30.32 in 10.0 mi NW 11.5 mph - N/A   Overcast
1:34 PM 55.9 °F 47.3 °F 73% 30.32 in 10.0 mi WNW 9.2 mph 17.3 mph N/A   Overcast
1:54 PM 56.7 °F 47.3 °F 71% 30.32 in 10.0 mi WNW 11.5 mph - N/A   Overcast
2:15 PM 55.9 °F 46.6 °F 71% 30.32 in 10.0 mi WNW 12.7 mph 17.3 mph N/A   Overcast
2:34 PM 56.5 °F 46.4 °F 69% 30.32 in 10.0 mi NW 9.2 mph - N/A   Overcast
2:54 PM 55.8 °F 45.9 °F 69% 30.33 in 10.0 mi NW 10.4 mph 16.1 mph N/A   Overcast
3:15 PM 56.1 °F 46.2 °F 69% 30.33 in 10.0 mi NW 10.4 mph - N/A   Overcast
3:34 PM 56.3 °F 46.2 °F 69% 30.33 in 10.0 mi NW 10.4 mph - N/A   Overcast
3:54 PM 56.1 °F 45.9 °F 68% 30.34 in 10.0 mi NW 12.7 mph 16.1 mph N/A   Overcast
4:14 PM 55.4 °F 46.4 °F 72% 30.34 in 10.0 mi NW 10.4 mph - N/A   Overcast
4:34 PM 55.0 °F 45.7 °F 71% 30.34 in 10.0 mi NW 11.5 mph 16.1 mph N/A   Overcast
4:54 PM 55.0 °F 46.2 °F 72% 30.35 in 10.0 mi WNW 10.4 mph - N/A   Overcast
5:14 PM 54.7 °F 46.0 °F 73% 30.35 in 10.0 mi NW 9.2 mph - N/A   Overcast
5:34 PM 54.5 °F 45.7 °F 72% 30.35 in 10.0 mi NW 6.9 mph - N/A   Overcast
5:54 PM 54.5 °F 45.7 °F 72% 30.35 in 10.0 mi NW 8.1 mph - N/A   Overcast
6:15 PM 54.5 °F 45.0 °F 70% 30.35 in 10.0 mi WNW 8.1 mph - N/A   Overcast
6:34 PM 54.0 °F 45.5 °F 73% 30.36 in 10.0 mi NW 4.6 mph - N/A   Overcast
6:54 PM 53.8 °F 44.6 °F 71% 30.37 in 10.0 mi NW 4.6 mph - N/A   Overcast
7:14 PM 53.1 °F 43.7 °F 71% 30.37 in 10.0 mi NNW 5.8 mph - N/A   Mostly Cloudy
7:34 PM 52.7 °F 43.7 °F 71% 30.37 in 10.0 mi NW 4.6 mph - N/A   Mostly Cloudy
7:55 PM 52.7 °F 43.7 °F 71% 30.37 in 10.0 mi NW 5.8 mph - N/A   Mostly Cloudy
8:14 PM 52.9 °F 44.4 °F 73% 30.38 in 10.0 mi NNW 5.8 mph - N/A   Overcast
8:34 PM 53.2 °F 43.0 °F 68% 30.39 in 10.0 mi NNW 8.1 mph - N/A   Mostly Cloudy
8:55 PM 53.1 °F 41.9 °F 66% 30.39 in 10.0 mi NNW 6.9 mph - N/A   Mostly Cloudy
9:14 PM 52.7 °F 40.8 °F 64% 30.40 in 10.0 mi North 8.1 mph - N/A   Scattered Clouds
9:34 PM 52.2 °F 39.7 °F 63% 30.41 in 10.0 mi NNW 5.8 mph - N/A   Clear
9:55 PM 51.8 °F 39.4 °F 63% 30.41 in 10.0 mi NNW 8.1 mph - N/A   Clear
10:14 PM 51.8 °F 38.8 °F 61% 30.41 in 10.0 mi North 6.9 mph - N/A   Clear
10:35 PM 51.1 °F 39.0 °F 63% 30.41 in 10.0 mi NNW 3.5 mph - N/A   Clear
10:55 PM 50.9 °F 38.3 °F 62% 30.41 in 10.0 mi Calm Calm - N/A   Clear
11:14 PM 50.9 °F 38.7 °F 63% 30.41 in 10.0 mi North 4.6 mph - N/A   Clear
11:35 PM 50.5 °F 38.7 °F 64% 30.42 in 10.0 mi North 4.6 mph - N/A   Clear
11:55 PM 50.9 °F 38.7 °F 63% 30.42 in 10.0 mi NNW 3.5 mph - N/A   Clear